Time,TemperatureF,DewpointF,PressureIn,WindDirection,WindDirectionDegrees,WindSpeedMPH,WindSpeedGustMPH,Humidity,HourlyPrecipIn,Conditions,Clouds,dailyrainin,SoftwareType,DateUTC
2013-01-19 00:03:00,31.6,27.3,30.09,East,98,2.0,2.0,84,0.00,,,0.00,LWC V1.12 B30,2013-01-18 23:03:00,
2013-01-19 00:08:00,31.5,27.2,30.09,East,96,1.0,3.0,84,0.00,,,0.00,LWC V1.12 B30,2013-01-18 23:08:00,
2013-01-19 00:13:00,31.3,27.0,30.09,East,97,2.0,2.0,84,0.00,,,0.00,LWC V1.12 B30,2013-01-18 23:13:00,
2013-01-19 00:18:00,31.2,26.9,30.09,East,100,2.0,3.0,84,0.00,,,0.00,LWC V1.12 B30,2013-01-18 23:18:00,
2013-01-19 00:23:00,31.3,27.3,30.09,ESE,103,2.0,3.0,85,0.00,,,0.00,LWC V1.12 B30,2013-01-18 23:23:00,
2013-01-19 00:28:00,31.4,27.4,30.09,East,101,2.0,4.0,85,0.00,,,0.00,LWC V1.12 B30,2013-01-18 23:28:00,
2013-01-19 00:33:00,31.5,27.5,30.09,East,101,1.0,3.0,85,0.00,,,0.00,LWC V1.12 B30,2013-01-18 23:33:00,
2013-01-19 00:38:00,31.4,27.1,30.09,ESE,107,2.0,6.0,84,0.00,,,0.00,LWC V1.12 B30,2013-01-18 23:38:00,
2013-01-19 00:43:00,31.2,26.9,30.09,ESE,106,1.0,2.0,84,0.00,,,0.00,LWC V1.12 B30,2013-01-18 23:43:00,
2013-01-19 00:48:00,31.2,26.9,30.09,ESE,109,2.0,4.0,84,0.00,,,0.00,LWC V1.12 B30,2013-01-18 23:48:00,
2013-01-19 00:53:00,31.3,27.0,30.09,ESE,106,1.0,2.0,84,0.00,,,0.00,LWC V1.12 B30,2013-01-18 23:53:00,
2013-01-19 00:58:00,31.4,27.1,30.09,East,94,1.0,4.0,84,0.00,,,0.00,LWC V1.12 B30,2013-01-18 23:58:00,
2013-01-19 01:03:00,31.6,27.0,30.09,East,88,0.0,2.0,83,0.00,,,0.00,LWC V1.12 B30,2013-01-19 00:03:00,
2013-01-19 01:08:00,31.9,27.3,30.09,East,96,2.0,3.0,83,0.00,,,0.00,LWC V1.12 B30,2013-01-19 00:08:00,
2013-01-19 01:13:00,32.0,26.8,30.09,ESE,104,0.0,4.0,81,0.00,,,0.00,LWC V1.12 B30,2013-01-19 00:13:00,
2013-01-19 01:18:00,32.0,26.8,30.09,East,101,2.0,3.0,81,0.00,,,0.00,LWC V1.12 B30,2013-01-19 00:18:00,
2013-01-19 01:23:00,32.2,27.0,30.09,ESE,102,2.0,3.0,81,0.00,,,0.00,LWC V1.12 B30,2013-01-19 00:23:00,
2013-01-19 01:28:00,32.1,26.6,30.09,ESE,103,1.0,1.0,80,0.00,,,0.00,LWC V1.12 B30,2013-01-19 00:28:00,
2013-01-19 01:33:00,32.0,26.5,30.09,ESE,103,1.0,2.0,80,0.00,,,0.00,LWC V1.12 B30,2013-01-19 00:33:00,
2013-01-19 01:38:00,32.2,26.7,30.09,ESE,103,0.0,1.0,80,0.00,,,0.00,LWC V1.12 B30,2013-01-19 00:38:00,
2013-01-19 01:43:00,32.2,26.4,30.10,ESE,104,2.0,2.0,79,0.00,,,0.00,LWC V1.12 B30,2013-01-19 00:43:00,
2013-01-19 01:48:00,32.2,26.4,30.10,ESE,103,1.0,1.0,79,0.00,,,0.00,LWC V1.12 B30,2013-01-19 00:48:00,
2013-01-19 01:53:00,32.3,26.5,30.10,ESE,103,1.0,2.0,79,0.00,,,0.00,LWC V1.12 B30,2013-01-19 00:53:00,
2013-01-19 01:58:00,32.2,26.4,30.10,ESE,104,0.0,1.0,79,0.00,,,0.00,LWC V1.12 B30,2013-01-19 00:58:00,
2013-01-19 02:03:00,32.1,26.3,30.10,ESE,104,0.0,0.0,79,0.00,,,0.00,LWC V1.12 B30,2013-01-19 01:03:00,
2013-01-19 02:08:00,31.8,25.7,30.10,ESE,104,0.0,0.0,78,0.00,,,0.00,LWC V1.12 B30,2013-01-19 01:08:00,
2013-01-19 02:13:00,31.4,25.3,30.10,ESE,103,0.0,0.0,78,0.00,,,0.00,LWC V1.12 B30,2013-01-19 01:13:00,
2013-01-19 02:18:00,31.0,25.0,30.10,ESE,104,0.0,0.0,78,0.00,,,0.00,LWC V1.12 B30,2013-01-19 01:18:00,
2013-01-19 02:23:00,30.7,24.7,30.10,ESE,104,0.0,0.0,78,0.00,,,0.00,LWC V1.12 B30,2013-01-19 01:23:00,
2013-01-19 02:28:00,30.6,25.2,30.10,ESE,104,0.0,1.0,80,0.00,,,0.00,LWC V1.12 B30,2013-01-19 01:28:00,
2013-01-19 02:33:00,30.9,25.8,30.11,ESE,104,0.0,2.0,81,0.00,,,0.00,LWC V1.12 B30,2013-01-19 01:33:00,
2013-01-19 02:38:00,31.4,26.3,30.11,ESE,104,0.0,1.0,81,0.00,,,0.00,LWC V1.12 B30,2013-01-19 01:38:00,
2013-01-19 02:43:00,31.9,26.4,30.11,ESE,103,1.0,1.0,80,0.00,,,0.00,LWC V1.12 B30,2013-01-19 01:43:00,
2013-01-19 02:48:00,32.5,26.7,30.11,ESE,103,1.0,2.0,79,0.00,,,0.00,LWC V1.12 B30,2013-01-19 01:48:00,
2013-01-19 02:53:00,33.0,26.9,30.10,ESE,103,1.0,1.0,78,0.00,,,0.00,LWC V1.12 B30,2013-01-19 01:53:00,
2013-01-19 02:58:00,33.4,26.7,30.11,East,101,1.0,1.0,76,0.00,,,0.00,LWC V1.12 B30,2013-01-19 01:58:00,
2013-01-19 03:03:00,33.7,26.6,30.11,East,101,1.0,2.0,75,0.00,,,0.00,LWC V1.12 B30,2013-01-19 02:03:00,
2013-01-19 03:08:00,34.1,26.4,30.11,East,101,1.0,2.0,73,0.00,,,0.00,LWC V1.12 B30,2013-01-19 02:08:00,
2013-01-19 03:12:00,34.3,26.2,30.11,East,101,2.0,2.0,72,0.00,,,0.00,LWC V1.12 B30,2013-01-19 02:12:00,
2013-01-19 03:17:00,34.3,26.2,30.11,East,101,2.0,3.0,72,0.00,,,0.00,LWC V1.12 B30,2013-01-19 02:17:00,
2013-01-19 03:22:00,34.3,25.9,30.11,East,101,2.0,3.0,71,0.00,,,0.00,LWC V1.12 B30,2013-01-19 02:22:00,
2013-01-19 03:27:00,34.3,26.2,30.11,East,101,1.0,3.0,72,0.00,,,0.00,LWC V1.12 B30,2013-01-19 02:27:00,
2013-01-19 03:32:00,34.2,26.1,30.10,East,99,1.0,2.0,72,0.00,,,0.00,LWC V1.12 B30,2013-01-19 02:32:00,
2013-01-19 03:37:00,34.0,25.9,30.10,East,99,1.0,2.0,72,0.00,,,0.00,LWC V1.12 B30,2013-01-19 02:37:00,
2013-01-19 03:42:00,33.6,25.9,30.10,East,101,3.0,3.0,73,0.00,,,0.00,LWC V1.12 B30,2013-01-19 02:42:00,
2013-01-19 03:47:00,32.9,25.5,30.11,East,99,3.0,4.0,74,0.00,,,0.00,LWC V1.12 B30,2013-01-19 02:47:00,
2013-01-19 03:52:00,32.5,25.5,30.11,East,94,3.0,4.0,75,0.00,,,0.00,LWC V1.12 B30,2013-01-19 02:52:00,
2013-01-19 03:57:00,32.5,25.8,30.11,East,94,2.0,2.0,76,0.00,,,0.00,LWC V1.12 B30,2013-01-19 02:57:00,
2013-01-19 04:02:00,32.6,25.9,30.11,East,94,1.0,1.0,76,0.00,,,0.00,LWC V1.12 B30,2013-01-19 03:02:00,
2013-01-19 04:07:00,32.8,25.8,30.11,ESE,109,2.0,4.0,75,0.00,,,0.00,LWC V1.12 B30,2013-01-19 03:07:00,
2013-01-19 04:12:00,32.5,25.8,30.11,ESE,109,0.0,2.0,76,0.00,,,0.00,LWC V1.12 B30,2013-01-19 03:12:00,
2013-01-19 04:17:00,32.6,25.9,30.11,ESE,109,1.0,2.0,76,0.00,,,0.00,LWC V1.12 B30,2013-01-19 03:17:00,
2013-01-19 04:22:00,32.9,25.9,30.11,ESE,109,1.0,2.0,75,0.00,,,0.00,LWC V1.12 B30,2013-01-19 03:22:00,
2013-01-19 04:27:00,33.2,26.1,30.11,ESE,108,3.0,3.0,75,0.00,,,0.00,LWC V1.12 B30,2013-01-19 03:27:00,
2013-01-19 04:32:00,33.5,26.1,30.11,ESE,106,1.0,2.0,74,0.00,,,0.00,LWC V1.12 B30,2013-01-19 03:32:00,
2013-01-19 04:37:00,33.4,26.0,30.11,ESE,106,1.0,2.0,74,0.00,,,0.00,LWC V1.12 B30,2013-01-19 03:37:00,
2013-01-19 04:42:00,33.4,25.7,30.11,ESE,105,2.0,3.0,73,0.00,,,0.00,LWC V1.12 B30,2013-01-19 03:42:00,
2013-01-19 04:47:00,33.6,25.9,30.11,ESE,105,2.0,2.0,73,0.00,,,0.00,LWC V1.12 B30,2013-01-19 03:47:00,
2013-01-19 04:52:00,33.1,25.4,30.11,ESE,115,4.0,5.0,73,0.00,,,0.00,LWC V1.12 B30,2013-01-19 03:52:00,
2013-01-19 04:57:00,32.0,25.0,30.11,ESE,118,3.0,5.0,75,0.00,,,0.00,LWC V1.12 B30,2013-01-19 03:57:00,
2013-01-19 05:02:00,31.9,25.5,30.11,ESE,107,3.0,4.0,77,0.00,,,0.00,LWC V1.12 B30,2013-01-19 04:02:00,
2013-01-19 05:07:00,32.5,25.8,30.11,East,98,4.0,6.0,76,0.00,,,0.00,LWC V1.12 B30,2013-01-19 04:07:00,
2013-01-19 05:12:00,33.2,26.1,30.11,ESE,107,2.0,5.0,75,0.00,,,0.00,LWC V1.12 B30,2013-01-19 04:12:00,
2013-01-19 05:17:00,33.6,25.9,30.11,East,99,4.0,5.0,73,0.00,,,0.00,LWC V1.12 B30,2013-01-19 04:17:00,
2013-01-19 05:22:00,33.8,25.7,30.11,ESE,107,2.0,5.0,72,0.00,,,0.00,LWC V1.12 B30,2013-01-19 04:22:00,
2013-01-19 05:27:00,33.8,25.7,30.11,ESE,102,4.0,4.0,72,0.00,,,0.00,LWC V1.12 B30,2013-01-19 04:27:00,
2013-01-19 05:32:00,34.1,26.0,30.11,ESE,102,4.0,5.0,72,0.00,,,0.00,LWC V1.12 B30,2013-01-19 04:32:00,
2013-01-19 05:37:00,34.3,25.9,30.11,East,101,2.0,4.0,71,0.00,,,0.00,LWC V1.12 B30,2013-01-19 04:37:00,
2013-01-19 05:42:00,34.7,25.9,30.11,ESE,102,2.0,3.0,70,0.00,,,0.00,LWC V1.12 B30,2013-01-19 04:42:00,
2013-01-19 05:47:00,34.8,26.0,30.11,East,100,3.0,4.0,70,0.00,,,0.00,LWC V1.12 B30,2013-01-19 04:47:00,
2013-01-19 05:52:00,34.8,26.0,30.11,ESE,102,2.0,5.0,70,0.00,,,0.00,LWC V1.12 B30,2013-01-19 04:52:00,
2013-01-19 05:57:00,34.9,25.8,30.11,East,101,3.0,5.0,69,0.00,,,0.00,LWC V1.12 B30,2013-01-19 04:57:00,
2013-01-19 06:00:00,35.0,25.9,30.11,East,94,2.0,5.0,69,0.00,,,0.00,LWC V1.12 B30,2013-01-19 05:00:00,
2013-01-19 06:01:00,35.0,25.9,30.11,East,95,3.0,5.0,69,0.00,,,0.00,LWC V1.12 B30,2013-01-19 05:01:00,
2013-01-19 06:02:00,35.0,25.9,30.11,East,94,3.0,4.0,69,0.00,,,0.00,LWC V1.12 B30,2013-01-19 05:02:00,
2013-01-19 06:07:00,35.1,26.0,30.12,East,101,2.0,4.0,69,0.00,,,0.00,LWC V1.12 B30,2013-01-19 05:07:00,
2013-01-19 06:11:00,35.1,26.0,30.12,ESE,105,2.0,6.0,69,0.00,,,0.00,LWC V1.12 B30,2013-01-19 05:11:00,
2013-01-19 06:16:00,35.2,26.1,30.12,East,95,2.0,4.0,69,0.00,,,0.00,LWC V1.12 B30,2013-01-19 05:16:00,
2013-01-19 06:21:00,35.1,26.0,30.12,East,100,3.0,3.0,69,0.00,,,0.00,LWC V1.12 B30,2013-01-19 05:21:00,
2013-01-19 06:26:00,35.1,26.0,30.12,East,96,3.0,6.0,69,0.00,,,0.00,LWC V1.12 B30,2013-01-19 05:26:00,
2013-01-19 06:31:00,35.2,26.1,30.12,East,99,2.0,4.0,69,0.00,,,0.00,LWC V1.12 B30,2013-01-19 05:31:00,
2013-01-19 06:36:00,35.2,26.1,30.12,East,95,2.0,6.0,69,0.00,,,0.00,LWC V1.12 B30,2013-01-19 05:36:00,
2013-01-19 06:41:00,35.3,26.2,30.12,ESE,102,4.0,5.0,69,0.00,,,0.00,LWC V1.12 B30,2013-01-19 05:41:00,
2013-01-19 06:46:00,35.4,26.3,30.12,East,101,2.0,6.0,69,0.00,,,0.00,LWC V1.12 B30,2013-01-19 05:46:00,
2013-01-19 06:51:00,35.5,26.4,30.12,ESE,107,3.0,6.0,69,0.00,,,0.00,LWC V1.12 B30,2013-01-19 05:51:00,
2013-01-19 06:56:00,35.4,26.3,30.12,East,101,3.0,7.0,69,0.00,,,0.00,LWC V1.12 B30,2013-01-19 05:56:00,
2013-01-19 07:01:00,35.3,26.2,30.12,ESE,103,4.0,6.0,69,0.00,,,0.00,LWC V1.12 B30,2013-01-19 06:01:00,
2013-01-19 07:06:00,35.3,26.2,30.12,East,97,2.0,5.0,69,0.00,,,0.00,LWC V1.12 B30,2013-01-19 06:06:00,
2013-01-19 07:11:00,35.2,26.4,30.12,ESE,106,3.0,7.0,70,0.00,,,0.00,LWC V1.12 B30,2013-01-19 06:11:00,
2013-01-19 07:16:00,35.0,26.6,30.12,ESE,117,2.0,5.0,71,0.00,,,0.00,LWC V1.12 B30,2013-01-19 06:16:00,
2013-01-19 07:21:00,34.7,26.3,30.12,ESE,109,4.0,6.0,71,0.00,,,0.00,LWC V1.12 B30,2013-01-19 06:21:00,
2013-01-19 07:26:00,34.5,26.4,30.12,ESE,117,5.0,6.0,72,0.00,,,0.00,LWC V1.12 B30,2013-01-19 06:26:00,
2013-01-19 07:31:00,34.4,26.3,30.12,ESE,103,5.0,6.0,72,0.00,,,0.00,LWC V1.12 B30,2013-01-19 06:31:00,
2013-01-19 07:36:00,34.3,26.6,30.12,ESE,102,7.0,7.0,73,0.00,,,0.00,LWC V1.12 B30,2013-01-19 06:36:00,
2013-01-19 07:41:00,34.4,26.7,30.12,East,99,4.0,7.0,73,0.00,,,0.00,LWC V1.12 B30,2013-01-19 06:41:00,
2013-01-19 07:46:00,34.4,26.7,30.12,ESE,103,5.0,7.0,73,0.00,,,0.00,LWC V1.12 B30,2013-01-19 06:46:00,
2013-01-19 07:51:00,34.3,26.9,30.12,ESE,105,5.0,7.0,74,0.00,,,0.00,LWC V1.12 B30,2013-01-19 06:51:00,
2013-01-19 07:56:00,34.3,26.9,30.12,ESE,102,5.0,7.0,74,0.00,,,0.00,LWC V1.12 B30,2013-01-19 06:56:00,
2013-01-19 08:01:00,34.3,26.9,30.12,ESE,103,6.0,10.0,74,0.00,,,0.00,LWC V1.12 B30,2013-01-19 07:01:00,
2013-01-19 08:06:00,34.3,26.9,30.12,ESE,109,5.0,8.0,74,0.00,,,0.00,LWC V1.12 B30,2013-01-19 07:06:00,
2013-01-19 08:11:00,34.3,26.9,30.12,ESE,111,5.0,9.0,74,0.00,,,0.00,LWC V1.12 B30,2013-01-19 07:11:00,
2013-01-19 08:16:00,34.2,27.1,30.12,East,100,3.0,8.0,75,0.00,,,0.00,LWC V1.12 B30,2013-01-19 07:16:00,
2013-01-19 08:21:00,34.2,27.1,30.12,ESE,105,5.0,9.0,75,0.00,,,0.00,LWC V1.12 B30,2013-01-19 07:21:00,
2013-01-19 08:26:00,34.0,26.9,30.12,ESE,114,4.0,11.0,75,0.00,,,0.00,LWC V1.12 B30,2013-01-19 07:26:00,
2013-01-19 08:31:00,33.9,27.1,30.12,SE,136,6.0,6.0,76,0.00,,,0.00,LWC V1.12 B30,2013-01-19 07:31:00,
2013-01-19 08:36:00,33.7,27.0,30.13,ESE,114,2.0,7.0,76,0.00,,,0.00,LWC V1.12 B30,2013-01-19 07:36:00,
2013-01-19 08:41:00,33.7,27.3,30.13,ESE,105,9.0,10.0,77,0.00,,,0.00,LWC V1.12 B30,2013-01-19 07:41:00,
2013-01-19 08:46:00,33.7,27.3,30.13,ESE,104,3.0,6.0,77,0.00,,,0.00,LWC V1.12 B30,2013-01-19 07:46:00,
2013-01-19 08:51:00,33.6,27.2,30.13,East,101,5.0,12.0,77,0.00,,,0.00,LWC V1.12 B30,2013-01-19 07:51:00,
2013-01-19 08:56:00,33.6,27.2,30.13,ESE,110,2.0,9.0,77,0.00,,,0.00,LWC V1.12 B30,2013-01-19 07:56:00,
2013-01-19 09:01:00,33.7,27.3,30.13,ESE,103,4.0,7.0,77,0.00,,,0.00,LWC V1.12 B30,2013-01-19 08:01:00,
2013-01-19 09:06:00,33.8,27.4,30.13,ESE,107,7.0,7.0,77,0.00,,,0.00,LWC V1.12 B30,2013-01-19 08:06:00,
2013-01-19 09:11:00,34.0,27.6,30.14,ESE,103,5.0,9.0,77,0.00,,,0.00,LWC V1.12 B30,2013-01-19 08:11:00,
2013-01-19 09:16:00,34.2,27.8,30.14,East,94,5.0,9.0,77,0.00,,,0.00,LWC V1.12 B30,2013-01-19 08:16:00,
2013-01-19 09:21:00,34.3,27.9,30.14,SE,127,4.0,6.0,77,0.00,,,0.00,LWC V1.12 B30,2013-01-19 08:21:00,
2013-01-19 09:26:00,34.3,28.2,30.14,ESE,115,7.0,11.0,78,0.00,,,0.00,LWC V1.12 B30,2013-01-19 08:26:00,
2013-01-19 09:31:00,34.3,28.5,30.14,ESE,109,4.0,6.0,79,0.00,,,0.00,LWC V1.12 B30,2013-01-19 08:31:00,
2013-01-19 09:36:00,34.2,28.4,30.14,ESE,119,3.0,6.0,79,0.00,,,0.00,LWC V1.12 B30,2013-01-19 08:36:00,
2013-01-19 09:41:00,34.2,28.7,30.14,ESE,114,4.0,7.0,80,0.00,,,0.00,LWC V1.12 B30,2013-01-19 08:41:00,
2013-01-19 09:46:00,34.1,28.9,30.14,ESE,118,4.0,9.0,81,0.00,,,0.00,LWC V1.12 B30,2013-01-19 08:46:00,
2013-01-19 09:51:00,34.0,29.1,30.14,ESE,120,4.0,10.0,82,0.00,,,0.00,LWC V1.12 B30,2013-01-19 08:51:00,
2013-01-19 09:56:00,33.8,29.2,30.14,SE,125,4.0,12.0,83,0.00,,,0.00,LWC V1.12 B30,2013-01-19 08:56:00,
2013-01-19 10:01:00,33.7,29.4,30.15,SE,132,6.0,7.0,84,0.00,,,0.01,LWC V1.12 B30,2013-01-19 09:01:00,
2013-01-19 10:06:00,33.5,29.2,30.15,SE,131,7.0,7.0,84,0.00,,,0.01,LWC V1.12 B30,2013-01-19 09:06:00,
2013-01-19 10:11:00,33.4,29.4,30.15,SE,136,6.0,8.0,85,0.00,,,0.01,LWC V1.12 B30,2013-01-19 09:11:00,
2013-01-19 10:16:00,33.3,29.3,30.15,ESE,122,3.0,5.0,85,0.00,,,0.01,LWC V1.12 B30,2013-01-19 09:16:00,
2013-01-19 10:21:00,33.2,29.5,30.15,ESE,107,5.0,6.0,86,0.00,,,0.01,LWC V1.12 B30,2013-01-19 09:21:00,
2013-01-19 10:26:00,33.3,29.6,30.15,ESE,122,3.0,5.0,86,0.00,,,0.01,LWC V1.12 B30,2013-01-19 09:26:00,
2013-01-19 10:31:00,33.3,29.9,30.15,ESE,115,3.0,7.0,87,0.00,,,0.01,LWC V1.12 B30,2013-01-19 09:31:00,
2013-01-19 10:36:00,33.3,29.9,30.15,ESE,107,3.0,4.0,87,0.00,,,0.01,LWC V1.12 B30,2013-01-19 09:36:00,
2013-01-19 10:41:00,33.6,30.4,30.15,ESE,103,4.0,5.0,88,0.00,,,0.01,LWC V1.12 B30,2013-01-19 09:41:00,
2013-01-19 10:46:00,34.0,30.8,30.14,ESE,123,5.0,6.0,88,0.00,,,0.02,LWC V1.12 B30,2013-01-19 09:46:00,
2013-01-19 10:51:00,34.3,31.4,30.14,ESE,114,4.0,8.0,89,0.00,,,0.02,LWC V1.12 B30,2013-01-19 09:51:00,
2013-01-19 10:56:00,34.6,31.7,30.14,ESE,109,5.0,6.0,89,0.00,,,0.02,LWC V1.12 B30,2013-01-19 09:56:00,
2013-01-19 11:01:00,35.0,32.1,30.14,ESE,103,2.0,5.0,89,0.00,,,0.02,LWC V1.12 B30,2013-01-19 10:01:00,
2013-01-19 11:06:00,35.4,32.5,30.13,East,96,1.0,3.0,89,0.00,,,0.02,LWC V1.12 B30,2013-01-19 10:06:00,
2013-01-19 11:11:00,35.6,33.0,30.13,East,90,0.0,2.0,90,0.00,,,0.02,LWC V1.12 B30,2013-01-19 10:11:00,
2013-01-19 11:16:00,35.9,33.3,30.14,East,90,2.0,2.0,90,0.00,,,0.02,LWC V1.12 B30,2013-01-19 10:16:00,
2013-01-19 11:21:00,36.0,33.4,30.14,East,92,0.0,3.0,90,0.00,,,0.02,LWC V1.12 B30,2013-01-19 10:21:00,
2013-01-19 11:26:00,36.3,33.7,30.13,ESE,105,2.0,4.0,90,0.00,,,0.02,LWC V1.12 B30,2013-01-19 10:26:00,
2013-01-19 11:31:00,36.6,33.9,30.13,SW,236,4.0,5.0,90,0.00,,,0.03,LWC V1.12 B30,2013-01-19 10:31:00,
2013-01-19 11:36:00,36.8,34.1,30.13,WSW,241,0.0,2.0,90,0.00,,,0.03,LWC V1.12 B30,2013-01-19 10:36:00,
2013-01-19 11:41:00,36.9,34.2,30.13,NW,324,1.0,7.0,90,0.00,,,0.03,LWC V1.12 B30,2013-01-19 10:41:00,
2013-01-19 11:46:00,36.8,34.1,30.12,North,0,1.0,6.0,90,0.00,,,0.04,LWC V1.12 B30,2013-01-19 10:46:00,
2013-01-19 11:51:00,36.9,34.2,30.12,SSE,148,2.0,10.0,90,0.00,,,0.04,LWC V1.12 B30,2013-01-19 10:51:00,
2013-01-19 11:56:00,37.0,34.3,30.12,SE,140,9.0,19.0,90,0.00,,,0.04,LWC V1.12 B30,2013-01-19 10:56:00,
2013-01-19 12:01:00,37.2,34.5,30.11,SE,136,7.0,14.0,90,0.00,,,0.04,LWC V1.12 B30,2013-01-19 11:01:00,
2013-01-19 12:06:00,37.3,34.6,30.11,SSE,163,5.0,18.0,90,0.00,,,0.04,LWC V1.12 B30,2013-01-19 11:06:00,
2013-01-19 12:11:00,37.2,34.5,30.11,SSE,160,5.0,16.0,90,0.00,,,0.04,LWC V1.12 B30,2013-01-19 11:11:00,
2013-01-19 13:48:00,35.8,34.0,30.09,SE,132,13.0,18.0,93,0.04,,,0.11,LWC V1.12 B30,2013-01-19 12:48:00,
2013-01-19 13:49:00,35.8,34.0,30.09,SSE,164,18.0,24.0,93,0.04,,,0.11,LWC V1.12 B30,2013-01-19 12:49:00,
2013-01-19 13:50:00,35.8,34.0,30.09,SE,146,14.0,24.0,93,0.04,,,0.11,LWC V1.12 B30,2013-01-19 12:50:00,
2013-01-19 13:54:00,36.0,34.2,30.08,SE,137,25.0,28.0,93,0.00,,,0.11,LWC V1.12 B30,2013-01-19 12:54:00,
2013-01-19 13:56:00,36.0,34.2,30.09,SE,130,20.0,28.0,93,0.00,,,0.11,LWC V1.12 B30,2013-01-19 12:56:00,
2013-01-19 14:00:00,36.9,35.1,30.07,SE,131,20.0,29.0,93,0.00,,,0.11,LWC V1.12 B30,2013-01-19 13:00:00,
2013-01-19 14:05:00,37.0,34.9,30.08,North,0,20.0,25.0,92,0.00,,,0.11,LWC V1.12 B30,2013-01-19 13:05:00,
2013-01-19 14:10:00,36.9,34.8,30.08,SE,129,19.0,29.0,92,0.00,,,0.11,LWC V1.12 B30,2013-01-19 13:10:00,
2013-01-19 14:15:00,37.0,34.9,30.09,SE,130,20.0,25.0,92,0.00,,,0.11,LWC V1.12 B30,2013-01-19 13:15:00,
2013-01-19 14:20:00,37.2,35.1,30.08,SE,131,23.0,29.0,92,0.00,,,0.11,LWC V1.12 B30,2013-01-19 13:20:00,
2013-01-19 14:25:00,37.0,34.9,30.07,SE,130,16.0,33.0,92,0.00,,,0.11,LWC V1.12 B30,2013-01-19 13:25:00,
2013-01-19 14:30:00,37.0,34.9,30.08,ESE,119,15.0,24.0,92,0.00,,,0.11,LWC V1.12 B30,2013-01-19 13:30:00,
2013-01-19 14:35:00,36.9,34.8,30.07,SE,130,30.0,30.0,92,0.00,,,0.11,LWC V1.12 B30,2013-01-19 13:35:00,
2013-01-19 14:40:00,36.7,34.6,30.08,SE,136,21.0,25.0,92,0.00,,,0.11,LWC V1.12 B30,2013-01-19 13:40:00,
2013-01-19 14:45:00,36.6,34.5,30.07,SE,131,24.0,28.0,92,0.00,,,0.11,LWC V1.12 B30,2013-01-19 13:45:00,
2013-01-19 14:50:00,36.6,34.5,30.08,SE,144,23.0,28.0,92,0.00,,,0.11,LWC V1.12 B30,2013-01-19 13:50:00,
2013-01-19 14:55:00,36.8,34.7,30.09,ESE,110,18.0,22.0,92,0.00,,,0.11,LWC V1.12 B30,2013-01-19 13:55:00,
2013-01-19 15:00:00,36.9,34.8,30.09,SE,135,27.0,29.0,92,0.00,,,0.11,LWC V1.12 B30,2013-01-19 14:00:00,
2013-01-19 15:05:00,37.0,34.9,30.08,SE,142,18.0,27.0,92,0.00,,,0.11,LWC V1.12 B30,2013-01-19 14:05:00,
2013-01-19 15:10:00,37.0,34.9,30.09,SSE,155,15.0,27.0,92,0.00,,,0.11,LWC V1.12 B30,2013-01-19 14:10:00,
2013-01-19 15:15:00,37.1,35.3,30.09,SE,124,17.0,21.0,93,0.00,,,0.11,LWC V1.12 B30,2013-01-19 14:15:00,
2013-01-19 15:20:00,37.2,35.4,30.09,South,173,5.0,17.0,93,0.00,,,0.11,LWC V1.12 B30,2013-01-19 14:20:00,
2013-01-19 15:25:00,37.3,35.5,30.09,South,175,4.0,10.0,93,0.00,,,0.11,LWC V1.12 B30,2013-01-19 14:25:00,
2013-01-19 15:30:00,37.4,35.6,30.08,South,180,5.0,14.0,93,0.00,,,0.11,LWC V1.12 B30,2013-01-19 14:30:00,
2013-01-19 15:35:00,37.5,35.7,30.09,South,188,10.0,14.0,93,0.00,,,0.11,LWC V1.12 B30,2013-01-19 14:35:00,
2013-01-19 15:40:00,37.9,36.1,30.09,SSE,160,7.0,15.0,93,0.00,,,0.11,LWC V1.12 B30,2013-01-19 14:40:00,
2013-01-19 15:45:00,38.3,36.5,30.09,South,169,9.0,15.0,93,0.00,,,0.11,LWC V1.12 B30,2013-01-19 14:45:00,
2013-01-19 15:50:00,38.2,36.4,30.09,South,169,9.0,14.0,93,0.00,,,0.11,LWC V1.12 B30,2013-01-19 14:50:00,
2013-01-19 15:55:00,38.5,36.7,30.09,SSE,163,14.0,20.0,93,0.00,,,0.11,LWC V1.12 B30,2013-01-19 14:55:00,
2013-01-19 16:00:00,38.5,36.7,30.09,South,169,10.0,16.0,93,0.00,,,0.11,LWC V1.12 B30,2013-01-19 15:00:00,
2013-01-19 16:05:00,38.5,36.7,30.09,SE,145,10.0,13.0,93,0.00,,,0.11,LWC V1.12 B30,2013-01-19 15:05:00,
2013-01-19 16:10:00,38.6,36.8,30.09,SE,140,12.0,13.0,93,0.00,,,0.11,LWC V1.12 B30,2013-01-19 15:10:00,
2013-01-19 16:15:00,38.5,36.7,30.09,SE,145,7.0,15.0,93,0.00,,,0.11,LWC V1.12 B30,2013-01-19 15:15:00,
2013-01-19 16:20:00,38.3,36.5,30.09,SSE,147,3.0,17.0,93,0.00,,,0.11,LWC V1.12 B30,2013-01-19 15:20:00,
2013-01-19 16:25:00,38.2,36.4,30.09,SSE,165,12.0,16.0,93,0.00,,,0.11,LWC V1.12 B30,2013-01-19 15:25:00,
2013-01-19 16:30:00,38.2,36.4,30.08,SSE,153,7.0,20.0,93,0.00,,,0.11,LWC V1.12 B30,2013-01-19 15:30:00,
2013-01-19 16:35:00,38.2,36.4,30.08,SSE,148,20.0,21.0,93,0.00,,,0.11,LWC V1.12 B30,2013-01-19 15:35:00,
2013-01-19 16:40:00,38.2,36.4,30.08,SSE,156,14.0,21.0,93,0.00,,,0.11,LWC V1.12 B30,2013-01-19 15:40:00,
2013-01-19 16:45:00,38.3,36.5,30.09,SE,132,13.0,26.0,93,0.00,,,0.11,LWC V1.12 B30,2013-01-19 15:45:00,
2013-01-19 16:50:00,38.2,36.4,30.09,SSE,164,7.0,19.0,93,0.00,,,0.11,LWC V1.12 B30,2013-01-19 15:50:00,
2013-01-19 16:55:00,38.2,36.4,30.09,SE,142,17.0,21.0,93,0.00,,,0.11,LWC V1.12 B30,2013-01-19 15:55:00,
2013-01-19 17:00:00,38.1,36.3,30.08,SE,129,21.0,27.0,93,0.00,,,0.11,LWC V1.12 B30,2013-01-19 16:00:00,
2013-01-19 17:05:00,38.1,36.3,30.08,SSE,159,16.0,23.0,93,0.00,,,0.11,LWC V1.12 B30,2013-01-19 16:05:00,
2013-01-19 17:10:00,38.1,36.3,30.09,ESE,122,20.0,21.0,93,0.00,,,0.11,LWC V1.12 B30,2013-01-19 16:10:00,
2013-01-19 17:15:00,38.1,36.3,30.08,SE,124,18.0,19.0,93,0.00,,,0.11,LWC V1.12 B30,2013-01-19 16:15:00,
2013-01-19 17:20:00,38.1,36.3,30.08,SE,134,13.0,21.0,93,0.00,,,0.11,LWC V1.12 B30,2013-01-19 16:20:00,
2013-01-19 17:25:00,38.2,36.4,30.08,North,0,17.0,27.0,93,0.00,,,0.11,LWC V1.12 B30,2013-01-19 16:25:00,
2013-01-19 17:30:00,38.3,36.7,30.08,SE,128,20.0,24.0,94,0.00,,,0.11,LWC V1.12 B30,2013-01-19 16:30:00,
2013-01-19 17:35:00,38.2,36.4,30.08,SE,134,19.0,22.0,93,0.00,,,0.12,LWC V1.12 B30,2013-01-19 16:35:00,
2013-01-19 17:40:00,38.2,36.4,30.08,SE,140,15.0,23.0,93,0.00,,,0.12,LWC V1.12 B30,2013-01-19 16:40:00,
2013-01-19 17:45:00,38.2,36.6,30.09,North,0,17.0,22.0,94,0.00,,,0.12,LWC V1.12 B30,2013-01-19 16:45:00,
2013-01-19 17:50:00,38.2,36.6,30.08,SE,134,20.0,26.0,94,0.00,,,0.12,LWC V1.12 B30,2013-01-19 16:50:00,
2013-01-19 17:55:00,38.3,36.7,30.08,SE,128,21.0,21.0,94,0.00,,,0.12,LWC V1.12 B30,2013-01-19 16:55:00,
2013-01-19 18:00:00,38.2,36.6,30.08,SE,140,24.0,24.0,94,0.00,,,0.12,LWC V1.12 B30,2013-01-19 17:00:00,
2013-01-19 18:05:00,38.3,36.7,30.08,SE,138,13.0,22.0,94,0.00,,,0.12,LWC V1.12 B30,2013-01-19 17:05:00,
2013-01-19 18:10:00,38.4,36.8,30.09,SE,134,6.0,20.0,94,0.00,,,0.12,LWC V1.12 B30,2013-01-19 17:10:00,
2013-01-19 18:15:00,38.4,36.8,30.08,SSE,155,14.0,21.0,94,0.00,,,0.12,LWC V1.12 B30,2013-01-19 17:15:00,
2013-01-19 18:20:00,38.5,36.9,30.08,SE,135,14.0,20.0,94,0.00,,,0.12,LWC V1.12 B30,2013-01-19 17:20:00,
2013-01-19 18:25:00,38.6,37.0,30.08,SE,144,17.0,20.0,94,0.00,,,0.12,LWC V1.12 B30,2013-01-19 17:25:00,
2013-01-19 18:30:00,38.7,37.1,30.08,East,101,16.0,21.0,94,0.00,,,0.12,LWC V1.12 B30,2013-01-19 17:30:00,
2013-01-19 18:35:00,39.0,37.4,30.08,South,169,20.0,26.0,94,0.00,,,0.13,LWC V1.12 B30,2013-01-19 17:35:00,
2013-01-19 18:40:00,39.2,37.6,30.07,SE,140,19.0,26.0,94,0.00,,,0.13,LWC V1.12 B30,2013-01-19 17:40:00,
2013-01-19 18:45:00,39.3,37.7,30.07,SSE,152,13.0,25.0,94,0.00,,,0.13,LWC V1.12 B30,2013-01-19 17:45:00,
2013-01-19 18:50:00,39.2,37.6,30.07,SE,133,19.0,21.0,94,0.00,,,0.13,LWC V1.12 B30,2013-01-19 17:50:00,
2013-01-19 18:55:00,39.4,37.8,30.07,SE,146,19.0,23.0,94,0.00,,,0.13,LWC V1.12 B30,2013-01-19 17:55:00,
2013-01-19 19:00:00,39.5,37.9,30.07,SE,132,13.0,28.0,94,0.00,,,0.13,LWC V1.12 B30,2013-01-19 18:00:00,
2013-01-19 19:05:00,39.6,38.0,30.07,ESE,122,16.0,24.0,94,0.00,,,0.13,LWC V1.12 B30,2013-01-19 18:05:00,
2013-01-19 19:10:00,39.6,38.0,30.07,SE,137,24.0,26.0,94,0.00,,,0.13,LWC V1.12 B30,2013-01-19 18:10:00,
2013-01-19 19:15:00,39.7,38.1,30.07,SE,132,15.0,25.0,94,0.00,,,0.13,LWC V1.12 B30,2013-01-19 18:15:00,
2013-01-19 19:20:00,39.7,38.1,30.07,North,0,18.0,22.0,94,0.00,,,0.14,LWC V1.12 B30,2013-01-19 18:20:00,
2013-01-19 19:25:00,39.6,38.0,30.08,SE,133,19.0,23.0,94,0.00,,,0.14,LWC V1.12 B30,2013-01-19 18:25:00,
2013-01-19 19:30:00,39.6,38.0,30.08,SE,133,12.0,22.0,94,0.00,,,0.14,LWC V1.12 B30,2013-01-19 18:30:00,
2013-01-19 19:35:00,39.6,38.0,30.08,SE,139,19.0,26.0,94,0.00,,,0.14,LWC V1.12 B30,2013-01-19 18:35:00,
2013-01-19 19:40:00,39.6,38.0,30.08,SE,141,13.0,26.0,94,0.00,,,0.14,LWC V1.12 B30,2013-01-19 18:40:00,
2013-01-19 19:45:00,39.6,38.0,30.08,ESE,119,17.0,24.0,94,0.00,,,0.14,LWC V1.12 B30,2013-01-19 18:45:00,
2013-01-19 19:50:00,39.6,38.0,30.07,SE,138,17.0,24.0,94,0.00,,,0.14,LWC V1.12 B30,2013-01-19 18:50:00,
2013-01-19 19:55:00,39.4,38.1,30.07,ESE,121,17.0,21.0,95,0.00,,,0.14,LWC V1.12 B30,2013-01-19 18:55:00,
2013-01-19 20:00:00,39.4,38.1,30.07,SE,138,15.0,21.0,95,0.00,,,0.14,LWC V1.12 B30,2013-01-19 19:00:00,
2013-01-19 20:05:00,39.4,38.1,30.07,SE,146,22.0,27.0,95,0.00,,,0.14,LWC V1.12 B30,2013-01-19 19:05:00,
2013-01-19 20:10:00,39.5,38.2,30.08,SSE,159,16.0,24.0,95,0.00,,,0.14,LWC V1.12 B30,2013-01-19 19:10:00,
2013-01-19 20:16:00,39.6,38.3,30.07,SE,140,15.0,25.0,95,0.00,,,0.14,LWC V1.12 B30,2013-01-19 19:16:00,
2013-01-19 20:20:00,39.7,38.4,30.07,ESE,112,15.0,25.0,95,0.00,,,0.14,LWC V1.12 B30,2013-01-19 19:20:00,
2013-01-19 20:26:00,39.8,38.5,30.07,SE,128,15.0,27.0,95,0.00,,,0.14,LWC V1.12 B30,2013-01-19 19:26:00,
2013-01-19 20:31:00,39.9,38.6,30.07,ESE,113,18.0,20.0,95,0.00,,,0.14,LWC V1.12 B30,2013-01-19 19:31:00,
2013-01-19 20:36:00,39.9,38.6,30.07,North,0,19.0,24.0,95,0.00,,,0.14,LWC V1.12 B30,2013-01-19 19:36:00,
2013-01-19 20:41:00,40.0,38.7,30.07,North,0,16.0,21.0,95,0.00,,,0.14,LWC V1.12 B30,2013-01-19 19:41:00,
2013-01-19 20:46:00,40.1,38.8,30.07,SE,132,17.0,20.0,95,0.00,,,0.14,LWC V1.12 B30,2013-01-19 19:46:00,
2013-01-19 20:51:00,40.3,39.0,30.07,SE,146,15.0,19.0,95,0.00,,,0.14,LWC V1.12 B30,2013-01-19 19:51:00,
2013-01-19 20:56:00,40.5,39.2,30.07,SE,140,16.0,22.0,95,0.00,,,0.14,LWC V1.12 B30,2013-01-19 19:56:00,
2013-01-19 21:01:00,40.9,39.6,30.07,SE,140,14.0,18.0,95,0.00,,,0.14,LWC V1.12 B30,2013-01-19 20:01:00,
2013-01-19 21:06:00,41.2,39.9,30.07,SSE,153,13.0,18.0,95,0.00,,,0.14,LWC V1.12 B30,2013-01-19 20:06:00,
2013-01-19 21:11:00,41.5,40.2,30.08,SSE,150,12.0,19.0,95,0.00,,,0.14,LWC V1.12 B30,2013-01-19 20:11:00,
2013-01-19 21:16:00,41.8,40.5,30.07,SE,132,15.0,18.0,95,0.00,,,0.14,LWC V1.12 B30,2013-01-19 20:16:00,
2013-01-19 21:21:00,42.4,41.3,30.07,SE,145,13.0,21.0,96,0.00,,,0.14,LWC V1.12 B30,2013-01-19 20:21:00,
2013-01-19 21:27:00,43.2,42.1,30.07,SE,141,16.0,21.0,96,0.00,,,0.14,LWC V1.12 B30,2013-01-19 20:27:00,
2013-01-19 21:32:00,45.5,44.4,30.07,SSE,155,21.0,22.0,96,0.00,,,0.15,LWC V1.12 B30,2013-01-19 20:32:00,
2013-01-19 21:37:00,46.8,45.7,30.08,SE,133,16.0,19.0,96,0.00,,,0.15,LWC V1.12 B30,2013-01-19 20:37:00,
2013-01-19 21:42:00,47.8,47.0,30.07,SE,129,15.0,24.0,97,0.00,,,0.15,LWC V1.12 B30,2013-01-19 20:42:00,
2013-01-19 21:47:00,47.9,46.8,30.07,SSE,156,5.0,17.0,96,0.00,,,0.15,LWC V1.12 B30,2013-01-19 20:47:00,
2013-01-19 21:52:00,47.1,45.7,30.08,SE,133,10.0,19.0,95,0.00,,,0.15,LWC V1.12 B30,2013-01-19 20:52:00,
2013-01-19 21:57:00,46.8,45.7,30.08,SE,130,14.0,21.0,96,0.09,,,0.15,LWC V1.12 B30,2013-01-19 20:57:00,
2013-01-19 22:02:00,46.0,44.6,30.08,SE,132,13.0,16.0,95,0.31,,,0.20,LWC V1.12 B30,2013-01-19 21:02:00,
2013-01-19 22:07:00,44.8,43.2,30.08,North,0,10.0,16.0,94,0.11,,,0.20,LWC V1.12 B30,2013-01-19 21:07:00,
2013-01-19 22:12:00,44.0,42.4,30.08,ESE,107,12.0,16.0,94,0.10,,,0.20,LWC V1.12 B30,2013-01-19 21:12:00,
2013-01-19 22:17:00,43.2,41.6,30.08,ESE,119,8.0,16.0,94,0.10,,,0.22,LWC V1.12 B30,2013-01-19 21:17:00,
2013-01-19 22:22:00,43.1,41.8,30.08,North,0,11.0,15.0,95,0.08,,,0.22,LWC V1.12 B30,2013-01-19 21:22:00,
2013-01-19 22:27:00,43.4,42.1,30.08,ESE,115,9.0,14.0,95,0.12,,,0.22,LWC V1.12 B30,2013-01-19 21:27:00,
2013-01-19 22:32:00,44.5,43.4,30.08,ESE,112,10.0,14.0,96,0.13,,,0.25,LWC V1.12 B30,2013-01-19 21:32:00,
2013-01-19 22:37:00,46.4,45.3,30.08,SSE,165,7.0,12.0,96,0.06,,,0.25,LWC V1.12 B30,2013-01-19 21:37:00,
2013-01-19 22:42:00,48.1,47.3,30.08,SE,125,15.0,17.0,97,0.13,,,0.25,LWC V1.12 B30,2013-01-19 21:42:00,
2013-01-19 22:47:00,48.7,47.6,30.08,SSE,153,6.0,16.0,96,0.19,,,0.28,LWC V1.12 B30,2013-01-19 21:47:00,
2013-01-19 22:53:00,48.9,47.8,30.08,SSE,149,9.0,16.0,96,0.12,,,0.28,LWC V1.12 B30,2013-01-19 21:53:00,
2013-01-19 22:58:00,49.3,48.2,30.08,SSE,148,11.0,19.0,96,0.10,,,0.28,LWC V1.12 B30,2013-01-19 21:58:00,
2013-01-19 23:03:00,49.4,48.3,30.08,South,173,8.0,16.0,96,0.05,,,0.30,LWC V1.12 B30,2013-01-19 22:03:00,
2013-01-19 23:08:00,49.5,48.4,30.08,SE,146,12.0,16.0,96,0.04,,,0.30,LWC V1.12 B30,2013-01-19 22:08:00,
2013-01-19 23:13:00,49.6,48.5,30.08,SSE,150,10.0,19.0,96,0.00,,,0.30,LWC V1.12 B30,2013-01-19 22:13:00,
2013-01-19 23:18:00,49.7,48.6,30.08,SSE,150,12.0,17.0,96,0.00,,,0.31,LWC V1.12 B30,2013-01-19 22:18:00,
2013-01-19 23:23:00,49.8,48.7,30.08,SSE,157,14.0,20.0,96,0.00,,,0.31,LWC V1.12 B30,2013-01-19 22:23:00,
2013-01-19 23:28:00,49.9,48.8,30.07,SSE,164,10.0,18.0,96,0.00,,,0.31,LWC V1.12 B30,2013-01-19 22:28:00,
2013-01-19 23:33:00,50.1,49.0,30.07,SE,140,11.0,23.0,96,0.00,,,0.31,LWC V1.12 B30,2013-01-19 22:33:00,
2013-01-19 23:38:00,50.2,49.1,30.07,South,186,13.0,22.0,96,0.00,,,0.31,LWC V1.12 B30,2013-01-19 22:38:00,
2013-01-19 23:43:00,50.2,49.1,30.07,SSE,161,9.0,19.0,96,0.00,,,0.31,LWC V1.12 B30,2013-01-19 22:43:00,
2013-01-19 23:48:00,50.3,49.2,30.07,South,175,9.0,21.0,96,0.00,,,0.31,LWC V1.12 B30,2013-01-19 22:48:00,
2013-01-19 23:53:00,50.4,49.3,30.07,SE,135,11.0,16.0,96,0.00,,,0.31,LWC V1.12 B30,2013-01-19 22:53:00,
2013-01-19 23:58:00,50.4,49.3,30.07,SE,128,10.0,19.0,96,0.00,,,0.31,LWC V1.12 B30,2013-01-19 22:58:00,